Regional Weather Roundup
Issued by NWS

Home | Current Version | Previous Version | Graphics & Text | Print | Product List | Glossary On
Versions: 1 2 3 4 5 6 7 8 9 10 11 12 13 14 15 16 17 18 19 20 21 22 23 24 25 26 27
000
ASUS45 KCYS 230510
RWRWY

WYOMING REGIONAL WEATHER ROUNDUP
NATIONAL WEATHER SERVICE CHEYENNE WY
1100 PM MDT TUE MAY 22 2018

NOTE:  "FAIR" INDICATES FEW OR NO CLOUDS BELOW 12,000 FEET
WITH NO SIGNIFICANT WEATHER AND/OR OBSTRUCTIONS TO VISIBILITY.

WYZ001-230600-
YELLOWSTONE NATIONAL PARK

CITY           SKY/WX    TMP DP  RH WIND       PRES   REMARKS
LK YELLOWSTONE   N/A     42  36  79 CALM      30.11F
W YELLOWSTONE  NOT AVBL

$$
WYZ002>013-054>058-071-098>099-230600-
NORTHERN WYOMING

CITY           SKY/WX    TMP DP  RH WIND       PRES   REMARKS
JACKSON        LGT RAIN  50  42  74 CALM      30.05S
CODY           LGT RAIN  52  48  86 SW14      30.05F
GREYBULL       CLOUDY    57  55  93 N5        29.99S
WORLAND        LGT RAIN  56  55  97 W3        30.00F
SHERIDAN       CLOUDY    58  53  84 S14G24    29.98R THUNDER
BUFFALO        LGT RAIN  55  51  86 W9        30.05R FOG
GILLETTE       CLOUDY    59  50  72 SE25      29.97F
NEWCASTLE      FAIR      59  43  55 NE20G29   29.95F

$$
WYZ014>020-022>026-101>103-230600-
CENTRAL WYOMING

CITY           SKY/WX    TMP DP  RH WIND       PRES   REMARKS
BIG PINEY      MOCLDY    45  42  89 NW3       30.09F
PINEDALE       CLOUDY    46  43  87 W7        30.09S
DUBOIS         RAIN      43  41  93 CALM      30.10F
LANDER         LGT RAIN  49  46  90 N6        30.03S
RIVERTON       CLOUDY    51  50  96 W8        30.04F
CASPER         CLOUDY    53  53 100 E6        30.02F
DOUGLAS        CLOUDY    53  53 100 W7        30.01R

$$
WYZ021-027>030-104>119-230600-
SOUTHERN WYOMING

CITY           SKY/WX    TMP DP  RH WIND       PRES   REMARKS
EVANSTON       CLOUDY    47  43  86 SE3       30.09R
KEMMERER       MOCLDY    46  41  81 N6        30.09R
FORT BRIDGER   DRIZZLE   47  40  76 SW21G26   30.11S
ROCK SPRINGS   FAIR      46  44  93 SE12      30.07S
DIXON          FAIR      46  41  84 E5        30.11F
RAWLINS        FAIR      49  41  74 W10       30.08F
SARATOGA       FAIR      45  45 100 S13       30.10F
LARAMIE        FAIR      46  44  93 E3        30.10F
CHEYENNE       FAIR      53  51  93 NW6       30.05F
TORRINGTON     LGT RAIN  61  55  81 SW10      29.98R
PINE BLUFFS    MOCLDY    55  50  82 NW12      30.00F THUNDER

$$




USA.gov is the U.S. government's official web portal to all federal, state and local government web resources and services.